Regional Weather Roundup
Issued by NWS Upton, NY

Current Version | Previous Version | Graphics & Text | Print | Product List | Glossary Off
Versions: 1 2 3 4 5 6 7 8 9 10 11 12 13 14 15 16 17 18 19 20 21 22 23 24 25 26 27 28 29 30 31 32 33 34 35 36 37 38 39 40 41 42 43 44 45 46 47 48 49 50

000
ASUS41 KOKX 171609
RWROKX

Regional Weather Roundup
National Weather Service New York NY
1100 AM EST SUN DEC 17 2017

Note: "FAIR" indicates few or no clouds below 12,000 feet with no
significant weather and/or obstructions to visibility.

NYZ071-072-176-178-NJZ106-104-171700-
New York City Metro Area

CITY           SKY/WX    TMP DP  RH WIND       PRES   REMARKS
Central Park   CLOUDY    35  22  58 NE6       30.31F WCI  30
Bronx Bot Gard   N/A     34  21  60 NE3       30.30S
Bronx Lehman C   N/A     32  21  64 N2          N/A
LaGuardia Arpt CLOUDY    35  21  56 NE5       30.29F WCI  31
Queens College   N/A     34  23  64 NE5         N/A  WCI  30
Kennedy Intl   CLOUDY    34  23  64 NE6       30.30F WCI  29
Breezy Point     N/A     34 N/A N/A NE5         N/A  WCI  30
Brooklyn Coll    N/A     36  25  64 E6          N/A  WCI  31
Staten Island    N/A     34  23  64 NE5         N/A  WCI  30
Newark/Liberty CLOUDY    35  23  61 NE5       30.29F WCI  31
Teterboro      CLOUDY    34  21  59 CALM      30.29F
$$

NYZ177-179-078>081-171700-
Long Island New York

CITY           SKY/WX    TMP DP  RH WIND       PRES   REMARKS
Jones Beach      N/A     32 N/A N/A E5          N/A  WCI  27
Wantagh          N/A     32  23  69 E3          N/A
Matinecock Pt    N/A     32 N/A N/A E5          N/A  WCI  27
Farmingdale    CLOUDY    31  21  66 CALM      30.30F
MacArthur/ISP  CLOUDY    31  20  63 N5        30.29F WCI  26
Shirley        CLOUDY    32  21  64 NW6       30.30F WCI  26
Mt Sinai Harb    N/A    N/A N/A N/A N1          N/A
Westhampton    CLOUDY    30  17  58 VRB3      30.31S
East Hampton   PTSUNNY   30  17  58 NW3       30.28F
Southold         N/A     32  18  55 N8          N/A  WCI  25
Montauk          N/A     33  14  45 NW10      30.28F WCI  25
$$

NYZ052-065-067-171700-
Hudson Valley

CITY           SKY/WX    TMP DP  RH WIND       PRES   REMARKS
White Plains   PTSUNNY   30  19  63 SE5       30.26F WCI  25
Larchmont Harb   N/A     32 N/A N/A E6          N/A  WCI  26
Croton On Huds   N/A     34 N/A N/A N1          N/A
Somers           N/A     28  18  64 SE2         N/A
Brewster         N/A     28  16  59 N3          N/A
Newburgh       PTSUNNY   27  19  74 VRB6      30.29S WCI  20
Montgomery     CLOUDY    29  19  66 CALM      30.27S
Otisville        N/A     28  19  69 NW1         N/A
Warwick          N/A     30  19  64 N1          N/A
Suffern          N/A     32  19  59 W1          N/A
Poughkeepsie   CLOUDY    26  14  60 NE5       30.30F WCI  20
Albany         MOSUNNY   21  13  71 CALM      30.33S
$$

NJZ001-105-106-008-010-013-015-019>022-104-171700-
New Jersey

CITY           SKY/WX    TMP DP  RH WIND       PRES   REMARKS
Newark/Liberty CLOUDY    35  23  61 NE5       30.29F WCI  31
Teterboro      CLOUDY    34  21  59 CALM      30.29F
Caldwell       CLOUDY    33  21  61 CALM      30.29F
Somerville     CLOUDY    36  26  67 CALM      30.27F
Linden         CLOUDY    35  22  58 CALM      30.30F
Perth Amboy      N/A     34 N/A N/A N5          N/A  WCI  30
Sussex         CLOUDY    30  20  66 CALM      30.27F
Andover        NOT AVBL
Trenton        CLOUDY    36  25  64 NE5       30.28S WCI  32
Millville      SUNNY     43  31  62 CALM      30.27S
Atlantic City  SUNNY     46  34  62 E3        30.27F
Wrightstown    CLOUDY    40  29  64 NE5       30.25F
Toms River     CLOUDY    41  31  67 E6        30.29S
Belmar         CLOUDY    37  27  67 NE7       30.28F WCI  32
$$

PAZ047>061-062-071-171700-
Eastern Pennsylvania

CITY           SKY/WX    TMP DP  RH WIND       PRES   REMARKS
Philadelphia   CLOUDY    40  27  59 NE6       30.29S
Allentown      CLOUDY    34  24  67 NE5       30.28S WCI  30
Scranton       CLOUDY    29  21  72 N5        30.23F WCI  24
$$

CTZ002-004>006-009-010-012-RIZ004-006-007-MAZ004-011-015-171700-
Southern New England

 In CT

CITY           SKY/WX    TMP DP  RH WIND       PRES   REMARKS
Bradley Intl   MOSUNNY   26  11  52 NE3       30.29F
Hartford       SUNNY     27  12  53 NE5       30.31F WCI  22
Danbury        CLOUDY    28  17  63 E5        30.28F WCI  23
Wtrbury/Oxford SUNNY     27  13  55 N10       30.25F WCI  17
Norwalk Harbor   N/A    N/A N/A N/A NW2         N/A
Bridgeport     CLOUDY    29  15  56 W7        30.30F WCI  22
Meriden        SUNNY     29  11  47 N8        30.29F WCI  21
New Haven      PTSUNNY   30  16  56 SE3       30.29F
Chester        FAIR      30   9  40 NW12G20   30.27F WCI  21
Groton         MOSUNNY   31  10  41 N10       30.28F WCI  22
Willimantic    SUNNY     28  10  46 NW15      30.29S WCI  16

 In RI

CITY           SKY/WX    TMP DP  RH WIND       PRES   REMARKS
Providence     MOSUNNY   30   9  41 N8        30.28S WCI  22
Block Island   SUNNY     30  13  49 NW12      30.28F WCI  20
Westerly       SUNNY     30   9  41 NW9G20    30.29F WCI  22

In MA

CITY           SKY/WX    TMP DP  RH WIND       PRES   REMARKS
Boston         MOSUNNY   25   4  40 NW14      30.27F WCI  13
Worcester      SUNNY     21   3  45 W16       30.20F WCI   7
Westfield      SUNNY     26  12  55 N10       30.28F WCI  16
Provincetown   SUNNY     28  15  58 NW17G24     N/A  WCI  16
Nantucket      SUNNY     28  11  48 NW12      30.25F WCI  18
$$

ANZ330-335-338-340-345-350-353-355-171700-
Coastal Marine Observations


STATION/POSITION TIME  SKY/WX   TEMP    WIND        PRES    VSBY  WAVE
                                AIR SEA DIR/SP/G                  HT/PER
                 (UTC)          (F)     (DEG/KT/KT) (MB)    (MI)  (FT/S)
NY Harb Entrance 1450            37 50   40/  6/ 10 1025.8          2/ 6
20 S Fire Island 1450            36 50   30/  6/  8 1026.2          2/ 6
15 E Barnegat Li 1530               49                N/A           2/ 6
Hudson Canyon    1450            43 54  350/  4/  6 1025.2          3/ 6
Kings Point      1530            33 42   70/  5/  6 1026.9
Execution Rocks  1530            35     340/  2/  6   N/A
Western LI Sound NOT AVBL
Central LI Sound NOT AVBL
Robbins Reef     1530            34     340/  6/  8 1026.5
$$


>>>>>>>>>>>>>>>>>>>>>>>>>>>> KEY <<<<<<<<<<<<<<<<<<<<<<<<<<<
>                                                          <
>     SKY/WX - Sky Condition/Present Weather               <
>     TMP    - Temperature in Fahrenheit                   <
>     DP     - Dew Point in Fahrenheit                     <
>     RH     - Relative Humidity in Percent                <
>     WIND   - Direction (from) and Speed in MPH           <
>     PRES   - Mean Sea Level Pressure (inches of Hg)      <
>     WCI    - Wind Chill Index                            <
>     VSB    - Visibility in Miles                         <
>     HX     - Heat Index                                  <
>     TC     - Temperature in Celsius                      <
>     VRB    - Varibale Wind Direction                     <
>                                                          <
>>>>>>>>>>>>>>>>>>>>>>>>>>>> KEY <<<<<<<<<<<<<<<<<<<<<<<<<<<



USA.gov is the U.S. government's official web portal to all federal, state and local government web resources and services.